Location: Binningen
(47.7924°N, 8.7261°E)
Time: 00:20:14
(UTC+00:00)

Terra - Pass Details

Date: 30 September 2021
Orbit: 701 x 703 km, 98.2° (Epoch: 18 October)

Event Time Altitude Azimuth Distance (km) Brightness Sun altitude
Exits shadow 20:10:02 15° 19° (NNE) 1,887 4.1 -30.3°
Drops below altitude 10° 20:11:01 10° 10° (N) 2,181 4.6 -30.4°
Sets 20:13:38 0° 357° (N) 3,103 5.6 -30.8°
